Stations météo

réclame
Mon MeteoGroup
Terschelling/Hoorn, Pays-Bas (6251): Température de l'air & dewpoint: 11.01.2018 08:00:00 - 17.01.2018 08:00:00 (CET)Terschelling/Hoorn, Pays-Bas (6251): Température de l'air 5cm: 11.01.2018 08:00:00 - 17.01.2018 08:00:00 (CET)Terschelling/Hoorn, Pays-Bas (6251): Vitesse du vent & gusts: 11.01.2018 08:00:00 - 17.01.2018 08:00:00 (CET)Terschelling/Hoorn, Pays-Bas (6251): Direction du vent: 11.01.2018 08:00:00 - 17.01.2018 08:00:00 (CET)Terschelling/Hoorn, Pays-Bas (6251): reduced air pressure: 11.01.2018 08:00:00 - 17.01.2018 08:00:00 (CET)Terschelling/Hoorn, Pays-Bas (6251): visibility: 11.01.2018 08:00:00 - 17.01.2018 08:00:00 (CET)Terschelling/Hoorn, Pays-Bas (6251): Quantités de précipitations: 11.01.2018 08:00:00 - 17.01.2018 08:00:00 (CET)
Date & Time tt [°C] td [°C] tt 5cm [°C] ff [km/h] ff [knt] fx [km/h] fx [knt] dd ppp [hPa] vv [km] rr [mm]
17.01.2018 08:00:00 3,5 -1,0 2,7 39 21 - - W 991,5 22 -
17.01.2018 07:00:00 2,4 0,2 2,1 29 16 65 35 W 990,6 19 0,1
17.01.2018 06:00:00 3,7 -0,1 2,9 36 19 58 31 W 989,6 20 0,4
17.01.2018 05:00:00 3,4 0,1 2,7 32 18 54 29 W 988,7 21 0,0
17.01.2018 04:00:00 3,3 0,2 2,2 32 18 - - W 988,3 20 0,2
17.01.2018 03:00:00 2,6 0,4 2,1 29 16 54 29 WSW 988,1 23 0,6
17.01.2018 02:00:00 2,9 0,8 2,4 22 12 40 21 WSW 987,8 19 0,0
17.01.2018 01:00:00 2,6 1,3 2,4 36 19 54 29 W 987,8 9 0,4
17.01.2018 00:00:00 4,1 0,2 3,4 36 19 50 27 W 987,5 19 0,0
16.01.2018 23:00:00 4,3 1,0 3,2 36 19 54 29 WSW 987,9 14 0,2
16.01.2018 22:00:00 3,8 1,2 2,6 22 12 58 31 W 988,3 17 0,3
16.01.2018 21:00:00 4,6 0,2 3,5 29 16 47 25 W 988,4 18 0,0
16.01.2018 20:00:00 4,4 1,3 3,8 25 14 54 29 W 988,6 14 0,0
16.01.2018 19:00:00 4,6 1,1 3,9 29 16 61 33 WSW 988,7 16 0,0
16.01.2018 18:00:00 4,6 0,3 3,8 43 23 61 33 W 989,1 20 0,0
16.01.2018 17:00:00 4,6 1,0 3,7 36 19 54 29 W 989,3 17 0,0
16.01.2018 16:00:00 4,5 0,5 3,9 36 19 54 29 W 989,1 16 0,0
16.01.2018 15:00:00 5,1 1,4 4,6 36 19 58 31 W 988,8 17 0,0
16.01.2018 14:00:00 5,1 1,7 4,5 32 18 58 31 W 988,5 20 0,1
16.01.2018 13:00:00 5,1 0,7 4,7 40 21 65 35 W 988,3 16 0,0
16.01.2018 12:00:00 4,6 1,5 4,0 32 18 54 29 W 988,1 17 0,0
16.01.2018 11:00:00 4,2 1,7 3,8 40 21 61 33 W 987,6 7 0,1
16.01.2018 10:00:00 4,3 1,2 4,1 40 21 65 35 W 986,9 17 0,0
16.01.2018 09:00:00 5,1 2,0 4,2 32 18 50 27 W 986,2 17 0,0
16.01.2018 08:00:00 4,8 2,5 4,1 32 18 58 31 W 986,0 15 0,2
16.01.2018 07:00:00 5,1 2,5 4,5 32 18 50 27 W 985,8 19 0,0
16.01.2018 06:00:00 5,2 3,2 4,7 36 19 50 27 W 985,6 15 0,6
16.01.2018 05:00:00 4,2 2,3 3,7 32 18 68 37 W 985,9 15 0,9
16.01.2018 04:00:00 5,4 3,2 4,6 36 19 58 31 WSW 986,3 20 0,2
16.01.2018 03:00:00 5,8 3,5 5,3 32 18 50 27 WSW 987,0 17 0,1
16.01.2018 02:00:00 6,0 3,4 5,5 36 19 54 29 W 987,6 16 0,0
16.01.2018 01:00:00 6,0 3,6 5,5 36 19 50 27 WSW 987,6 15 0,0
16.01.2018 00:00:00 6,1 4,2 5,6 32 18 47 25 W 987,0 15 0,0
15.01.2018 23:00:00 6,4 4,6 5,5 29 16 50 27 W 986,4 16 0,0
15.01.2018 22:00:00 7,0 5,9 6,4 32 18 47 25 W 986,0 14 0,1
15.01.2018 21:00:00 7,0 6,4 6,5 32 18 61 33 W 985,0 9 1,3
15.01.2018 20:00:00 4,5 3,9 4,3 43 23 61 33 S 985,1 6 0,7
15.01.2018 19:00:00 4,5 3,7 4,3 47 25 68 37 S 986,7 7 1,8
15.01.2018 18:00:00 4,6 4,0 4,4 43 23 68 37 S 988,6 3,1 2,4
15.01.2018 17:00:00 4,6 4,0 4,4 50 27 65 35 S 990,0 7 0,6
15.01.2018 16:00:00 4,3 3,9 4,2 50 27 68 37 S 991,9 2,3 0,5
15.01.2018 15:00:00 4,4 3,6 4,3 50 27 68 37 S 993,6 6 0,7
15.01.2018 14:00:00 4,1 3,4 4,0 43 23 61 33 S 995,4 4,7 1,3
15.01.2018 13:00:00 3,8 3,1 3,7 47 25 61 33 S 997,8 3,0 1,1
15.01.2018 12:00:00 3,6 2,8 3,5 50 27 68 37 S 1000,1 6 0,4
15.01.2018 11:00:00 3,4 2,6 3,3 47 25 61 33 S 1002,3 4,5 0,0
15.01.2018 10:00:00 3,4 2,7 3,3 47 25 58 31 S 1003,7 3,0 0,0
15.01.2018 09:00:00 3,2 2,5 3,2 43 23 54 29 S 1005,1 3,0 0,0
15.01.2018 08:00:00 3,2 2,1 3,0 40 21 54 29 S 1006,2 5 0,0
15.01.2018 07:00:00 3,0 1,9 2,9 36 19 47 25 S 1007,3 5 0,0
15.01.2018 06:00:00 3,1 1,9 2,9 36 19 50 27 S 1008,4 4,7 0,0
15.01.2018 05:00:00 2,8 1,8 2,7 36 19 47 25 S 1009,9 4,5 0,0
15.01.2018 04:00:00 2,7 1,8 2,5 32 18 47 25 S 1011,3 3,7 0,0
15.01.2018 03:00:00 2,6 1,5 2,4 36 19 43 23 S 1012,2 5 0,0
15.01.2018 02:00:00 1,7 0,8 1,3 25 14 32 18 S 1013,6 6 0,0
15.01.2018 01:00:00 0,8 -0,5 0,3 25 14 36 19 SSE 1014,6 9 0,0
15.01.2018 00:00:00 0,8 -0,9 0,4 29 16 36 19 SSE 1015,4 10 0,0
14.01.2018 23:00:00 1,0 -1,0 0,5 29 16 36 19 SSE 1016,6 11 0,0
14.01.2018 22:00:00 1,1 -1,4 0,4 25 14 36 19 SSE 1017,5 12 0,0
14.01.2018 21:00:00 1,3 -1,4 0,7 25 14 36 19 SE 1018,1 13 0,0
14.01.2018 20:00:00 1,4 -1,3 0,9 25 14 36 19 SE 1018,9 13 0,0
14.01.2018 19:00:00 2,0 -0,7 1,7 29 16 36 19 ESE 1018,9 13 0,0
14.01.2018 18:00:00 1,8 -0,5 1,5 22 12 32 18 SE 1019,7 11 0,0
14.01.2018 17:00:00 1,5 -1,0 1,3 25 14 29 16 ESE 1020,2 12 0,0
14.01.2018 16:00:00 1,4 -1,1 1,2 22 12 29 16 ESE 1020,6 11 0,0
14.01.2018 15:00:00 1,3 -1,6 1,2 22 12 29 16 ESE 1021,0 12 0,0
14.01.2018 14:00:00 1,2 -1,5 1,3 25 14 36 19 ESE 1021,2 12 0,0
14.01.2018 13:00:00 1,1 -1,4 1,1 29 16 36 19 ESE 1021,8 12 0,0
14.01.2018 12:00:00 0,9 -1,7 0,9 29 16 40 21 E 1022,6 13 0,0
14.01.2018 11:00:00 0,9 -1,5 0,9 32 18 40 21 ESE 1022,9 10 0,0
14.01.2018 10:00:00 0,8 -1,2 0,7 29 16 40 21 E 1023,1 12 0,0
14.01.2018 09:00:00 0,9 -1,1 0,7 32 18 40 21 E 1023,1 11 0,0
14.01.2018 08:00:00 1,1 -0,7 0,9 32 18 40 21 E 1023,4 12 0,0
14.01.2018 07:00:00 1,0 -0,9 0,8 32 18 40 21 E 1023,5 13 0,0
14.01.2018 06:00:00 1,0 -0,8 0,9 32 18 40 21 E 1023,7 12 0,0
14.01.2018 05:00:00 1,3 -0,5 1,1 32 18 40 21 E 1023,7 11 0,0
14.01.2018 04:00:00 1,6 0,1 1,4 29 16 32 18 E 1024,1 8 0,0
14.01.2018 03:00:00 1,9 0,8 1,8 29 16 36 19 E 1024,5 4,3 0,0
14.01.2018 02:00:00 2,1 1,2 2,0 25 14 36 19 E 1024,5 4,4 0,0
14.01.2018 01:00:00 2,2 1,2 2,0 29 16 40 21 E 1024,5 4,6 0,0
14.01.2018 00:00:00 2,3 1,2 2,1 29 16 36 19 E 1024,7 4,8 0,0
13.01.2018 23:00:00 3,1 1,9 2,9 25 14 32 18 E 1025,0 6 0,0
13.01.2018 22:00:00 3,3 2,4 3,2 25 14 29 16 E 1025,0 5 0,0
13.01.2018 21:00:00 3,5 2,6 2,8 22 12 32 18 E 1025,0 6 0,0
13.01.2018 20:00:00 3,5 2,6 3,2 25 14 29 16 E 1025,0 6 0,0
13.01.2018 19:00:00 4,0 3,3 3,8 18 10 25 14 E 1024,9 5 0,0
13.01.2018 18:00:00 4,1 3,6 3,8 18 10 25 14 E 1024,8 4,2 0,0
13.01.2018 17:00:00 4,1 3,6 4,0 18 10 25 14 E 1024,7 3,8 0,0
13.01.2018 16:00:00 4,3 3,8 4,3 18 10 22 12 E 1024,7 3,1 0,0
13.01.2018 15:00:00 4,4 4,0 4,4 18 10 22 12 ESE 1025,1 2,8 0,0
13.01.2018 14:00:00 4,3 4,0 4,4 14 8 22 12 ESE 1025,6 2,1 0,0
13.01.2018 13:00:00 4,1 3,9 4,2 14 8 22 12 SE 1026,2 1,7 0,0
13.01.2018 12:00:00 3,8 3,6 4,0 14 8 22 12 SE 1026,3 1,4 0,0
13.01.2018 11:00:00 3,6 3,4 3,6 14 8 25 14 SE 1026,4 1,9 0,0
13.01.2018 10:00:00 3,5 3,1 3,4 18 10 25 14 SE 1026,2 3,7 0,0
13.01.2018 09:00:00 3,3 2,9 3,2 22 12 29 16 ESE 1026,0 4,5 0,0
13.01.2018 08:00:00 3,3 3,0 3,2 14 8 18 10 ESE 1025,9 3,4 0,0
13.01.2018 07:00:00 3,1 2,9 3,1 14 8 18 10 ESE 1026,0 3,1 0,0
13.01.2018 06:00:00 3,1 2,9 3,1 14 8 22 12 E 1026,2 3,7 0,0
13.01.2018 05:00:00 3,1 2,8 3,0 11 6 14 8 E 1026,4 3,7 0,0
13.01.2018 04:00:00 3,1 3,0 3,2 11 6 14 8 ESE 1027,0 1,7 0,0
13.01.2018 03:00:00 3,3 3,0 3,2 11 6 18 10 SE 1027,3 4,3 0,0
13.01.2018 02:00:00 3,3 2,9 3,2 14 8 18 10 E 1027,3 4,2 0,0
13.01.2018 01:00:00 3,3 3,1 3,3 14 8 18 10 E 1027,5 2,4 0,0
13.01.2018 00:00:00 3,3 3,1 3,3 14 8 18 10 E 1027,7 1,9 0,0
12.01.2018 23:00:00 3,3 3,0 3,2 14 8 18 10 E 1027,9 2,7 0,0
12.01.2018 22:00:00 3,3 3,0 3,2 11 6 22 12 E 1027,9 3,9 0,0
12.01.2018 21:00:00 3,3 3,1 3,4 14 8 22 12 ESE 1027,7 2,4 0,0
12.01.2018 20:00:00 3,3 3,0 3,3 11 6 14 8 E 1027,5 3,1 0,0
12.01.2018 19:00:00 3,3 3,2 3,4 11 6 14 8 ESE 1027,5 2,1 0,0
12.01.2018 18:00:00 3,3 3,3 3,3 11 6 14 8 ESE 1027,4 0,5 0,0
12.01.2018 17:00:00 3,3 2,9 3,3 11 6 14 8 E 1027,2 3,5 0,0
12.01.2018 16:00:00 3,4 2,9 3,5 11 6 14 8 E 1027,2 4,9 0,0
12.01.2018 15:00:00 3,8 3,3 3,8 11 6 18 10 E 1026,8 5 0,0
12.01.2018 14:00:00 4,5 3,7 4,4 7 4 11 6 ENE 1026,8 10 0,0
12.01.2018 13:00:00 4,5 3,8 4,5 0 0 4 2 N 1027,0 16 0,1
12.01.2018 12:00:00 4,4 4,0 4,4 4 2 4 2 W 1027,4 9 0,1
12.01.2018 11:00:00 3,8 3,3 3,8 0 0 4 2 N 1027,5 8 0,3
12.01.2018 10:00:00 3,6 3,1 3,6 0 0 4 2 N 1027,4 8 0,0
12.01.2018 09:00:00 3,6 3,6 3,6 0 0 4 2 N 1027,0 9 0,0
12.01.2018 08:00:00 3,6 3,4 3,6 4 2 7 4 E 1026,5 6 0,0
12.01.2018 07:00:00 3,7 3,5 3,8 7 4 25 14 E 1026,0 9 0,0
12.01.2018 06:00:00 5,4 4,5 5,0 11 6 14 8 NNE 1025,6 9 0,0
12.01.2018 05:00:00 5,5 4,7 5,1 11 6 18 10 NE 1025,6 6 0,0
12.01.2018 04:00:00 5,4 4,7 5,1 11 6 18 10 NNE 1025,6 6 0,0
12.01.2018 03:00:00 5,4 5,0 5,2 11 6 18 10 NNE 1025,4 3,5 0,2
12.01.2018 02:00:00 5,5 5,0 5,3 11 6 18 10 NNE 1025,3 3,3 0,0
12.01.2018 01:00:00 5,7 5,2 5,4 14 8 18 10 NNE 1025,0 3,6 0,0
12.01.2018 00:00:00 5,5 5,2 5,1 11 6 14 8 NE 1024,4 3,0 0,0
11.01.2018 23:00:00 5,7 5,3 5,3 11 6 18 10 NNE 1024,1 3,4 0,0
11.01.2018 22:00:00 6,1 5,8 5,8 14 8 22 12 NNE 1023,8 3,4 0,0
11.01.2018 21:00:00 6,1 5,6 5,4 11 6 18 10 N 1023,3 5 0,0
11.01.2018 20:00:00 5,9 5,4 5,2 7 4 14 8 N 1022,8 4,9 0,0
11.01.2018 19:00:00 5,7 5,1 5,0 11 6 14 8 NNE 1022,1 5 0,0
11.01.2018 18:00:00 5,7 5,4 5,1 7 4 11 6 N 1021,4 4,5 0,0
11.01.2018 17:00:00 5,9 5,5 5,4 7 4 11 6 N 1020,8 5 0,0
11.01.2018 16:00:00 6,1 5,6 5,8 7 4 14 8 NNE 1020,3 5 0,0
11.01.2018 15:00:00 6,3 5,7 6,1 11 6 11 6 NNE 1019,6 6 0,0
11.01.2018 14:00:00 6,4 6,1 6,4 7 4 11 6 NNE 1019,0 4,9 0,0
11.01.2018 13:00:00 5,5 5,5 5,7 7 4 14 8 N 1018,6 0,2 0,0
11.01.2018 12:00:00 5,8 5,8 5,8 7 4 11 6 N 1018,2 1,3 0,0
11.01.2018 11:00:00 5,6 5,6 5,7 7 4 7 4 NNW 1017,6 0,8 0,0
11.01.2018 10:00:00 5,3 5,2 5,2 7 4 7 4 NNE 1017,0 0,2 0,0
11.01.2018 09:00:00 5,0 4,9 4,8 4 2 7 4 NE 1016,1 0,4 0,0
11.01.2018 08:00:00 4,8 4,8 4,6 4 2 7 4 N 1015,2 0,3 0,0

tt = Température de l'air
td = dewpoint
tt 5cm = Température de l'air 5cm
ff = Vitesse du vent
fx = gusts
dd = Direction du vent
ppp = reduced air pressure
vv = visibility
rr = Quantités de précipitations

stations d'obs. à proximité